7 * 24
多渠道服务支持
ORBCOMM FM14 是一颗由 ORBCOMM 公司运营的低轨通信卫星,属于其第二代卫星通信网络的一部分。该卫星主要用于提供全球范围内的物联网(IoT)设备数据传输服务,适用于物流、运输、环境监测等领域。FM14 运行在 L 波段,支持双向通信,具备低功耗、广覆盖的特点,能够为远程设备提供可靠的连接。该卫星是 ORBCOMM 扩展其全球机器对机器(M2M)通信能力的重要组成部分。
| 数据来源 | 国际轨道数据 |
| 星历时间: | 2025-12-15T14:48:16+0800 18小时前 查看轨道信息 |
| 半长轴: | 7138.002km |
| 偏心率: | 0.0002403 |
| 轨道倾角: | 44.996° |
| 近地点辐角 | 179.081° |
| 升交点赤经 | 35.851° |
| 平近点角 | 181.005° |
| 近地点: | 758.151km |
| 远地点: | 761.583km |
| 周期: | 100.029分钟 |
| 每日圈数: | 14.395866 |